Regional Weather Roundup
Issued by NWS Upton, NY

Current Version | Previous Version | Text Only | Print | Product List | Glossary On
Versions: 1 2 3 4 5 6 7 8 9 10 11 12 13 14 15 16 17 18 19 20 21 22 23 24 25 26
000
ASUS41 KOKX 182005
RWROKX

Regional Weather Roundup
National Weather Service New York NY
300 PM EST SUN FEB 18 2018

Note: "FAIR" indicates few or no clouds below 12,000 feet with no
significant weather and/or obstructions to visibility.

NYZ071-072-176-178-NJZ106-104-182100-
New York City Metro Area

CITY           SKY/WX    TMP DP  RH WIND       PRES   REMARKS
Central Park   FAIR      44  22  41 VRB7      30.38R
Bronx Bot Gard   N/A     43  23  45 W10       30.38R
Bronx Lehman C   N/A     43  23  45 W8          N/A
LaGuardia Arpt FAIR      44  23  43 NW13      30.36R
Queens College   N/A     43  25  49 NW10        N/A
Kennedy Intl   FAIR      44  25  47 NW14      30.36S
Breezy Point     N/A     45 N/A N/A NW10        N/A
Brooklyn Coll    N/A     45  25  45 W12         N/A
Staten Island    N/A     43  23  45 NW12        N/A
Newark/Liberty PTSUNNY   45  24  43 NW13      30.36S
Teterboro      FAIR      44  25  47 NW13G20   30.36R
$$

NYZ177-179-078>081-182100-
Long Island New York

CITY           SKY/WX    TMP DP  RH WIND       PRES   REMARKS
Jones Beach      N/A     43 N/A N/A NW9         N/A
Wantagh          N/A     45  25  45 W10         N/A
Hempstead      NOT AVBL
Matinecock Pt    N/A     43 N/A N/A W10         N/A
Farmingdale    FAIR      45  24  43 N10       30.35R
MacArthur/ISP  FAIR      45  22  40 W10       30.35R
Shirley        FAIR      45  24  43 NW12      30.35R
Mt Sinai Harb    N/A    N/A N/A N/A W5          N/A
Westhampton    FAIR      44  21  40 NW14      30.36R
East Hampton   FAIR      43  23  45 NW13G18   30.33R
Southold         N/A     43  28  56 W5          N/A
Montauk          N/A     43  28  55 W7        30.34R
$$

NYZ052-065-067-182100-
Hudson Valley

CITY           SKY/WX    TMP DP  RH WIND       PRES   REMARKS
White Plains   FAIR      42  22  44 W8        30.33R
Larchmont Harb   N/A     41 N/A N/A W13         N/A
Croton On Huds   N/A     41 N/A N/A W8          N/A
Somers           N/A     41  21  45 NW6         N/A
Brewster         N/A     43  21  42 NW5         N/A
Newburgh       MOSUNNY   41  25  52 W10       30.34R
Montgomery     FAIR      41  22  46 NW7       30.33R
Otisville        N/A     37  21  52 NW5         N/A  WCI  34
Warwick          N/A     39  23  52 NW9         N/A  WCI  33
Suffern          N/A     39  23  52 NW8         N/A  WCI  34
Poughkeepsie   FAIR      43  20  39 W5        30.33R
Albany         PTSUNNY   38  25  59 W14       30.35R WCI  30
$$

NJZ001-105-106-008-010-013-015-019>022-104-182100-
New Jersey

CITY           SKY/WX    TMP DP  RH WIND       PRES   REMARKS
Newark/Liberty PTSUNNY   45  24  43 NW13      30.36S
Teterboro      FAIR      44  25  47 NW13G20   30.36R
Caldwell       FAIR      43  22  43 W7        30.37R
Somerville     FAIR      44  25  47 VRB7      30.35R
Linden         FAIR      45  24  43 NW5       30.37S
Perth Amboy      N/A     43 N/A N/A NW9         N/A
Sussex         FAIR      41  22  46 VRB5      30.35R
Andover          N/A     42  23  46 VRB3      30.35R
Trenton        FAIR      44  24  45 W8        30.37S
Millville      FAIR      46  29  51 W7        30.39S
Atlantic City  FAIR      48  29  47 W10       30.37S
Wrightstown    FAIR      45  27  49 NW9G16    30.34F
Toms River     FAIR      45  26  47 NW14      30.37F
Belmar         FAIR      45  26  47 NW10      30.37S
$$

PAZ047>061-062-071-182100-
Eastern Pennsylvania

CITY           SKY/WX    TMP DP  RH WIND       PRES   REMARKS
Philadelphia   PTSUNNY   46  25  43 NW13      30.38F
Allentown      FAIR      43  24  47 CALM      30.37R
Scranton       FAIR      39  22  50 E5        30.34R
$$

CTZ002-004>006-009-010-012-RIZ004-006-007-MAZ004-011-015-182100-
Southern New England

 In CT

CITY           SKY/WX    TMP DP  RH WIND       PRES   REMARKS
Bradley Intl   FAIR      39  23  52 NW21G28   30.33R WCI  29
Hartford       FAIR      41  23  48 NW13G21   30.34R
Danbury        FAIR      44  20  38 N6        30.33R
Wtrbury/Oxford FAIR      40  22  48 VRB6      30.32R
Norwalk Harbor   N/A     41 N/A N/A W5          N/A
Bridgeport     FAIR      45  21  38 NW7       30.34R
Meriden        FAIR      43  22  43 NW9       30.33R
New Haven      FAIR      44  23  43 NW10      30.33R
Chester        FAIR      43  21  42 N9        30.32R
Groton         FAIR      45  24  43 NW13      30.31R
Willimantic    FAIR      42  23  46 NW14G23   30.32R

 In RI

CITY           SKY/WX    TMP DP  RH WIND       PRES   REMARKS
Providence     NOT AVBL
Block Island   FAIR      43  27  53 W8        30.32R
Westerly       FAIR      46  23  40 W10       30.31R

In MA

CITY           SKY/WX    TMP DP  RH WIND       PRES   REMARKS
Boston         FAIR      42  23  46 W9        30.29R
Worcester      FAIR      39  21  48 W10       30.26R WCI  32
Westfield      FAIR      39  23  52 NW13G22   30.31R WCI  31
Provincetown   FAIR      41  28  60 NW16      30.31R
Nantucket      FAIR      42  29  59 N14       30.30R
$$

ANZ330-335-338-340-345-350-353-355-182100-
Coastal Marine Observations


STATION/POSITION TIME  SKY/WX   TEMP    WIND        PRES    VSBY  WAVE
                                AIR SEA DIR/SP/G                  HT/PER
                 (UTC)          (F)     (DEG/KT/KT) (MB)    (MI)  (FT/S)
NY Harb Entrance 1950            41 40  310/ 10/ 10 1027.7          2/ 9
20 S Fire Island 1950            40 42  290/ 12/ 14 1028.2          3/ 8
15 E Barnegat Li 1930               41                N/A           3/ 8
Hudson Canyon    1950            41 47  330/ 16/ 17 1028.2          5/ 6
Kings Point      1948            42 35  330/  9/ 12 1028.9
Execution Rocks  NOT AVBL
Western LI Sound NOT AVBL
Central LI Sound 1930            40     270/  8/ 10   N/A           1
Robbins Reef     1948            43     300/ 13/ 16 1028.6
$$


>>>>>>>>>>>>>>>>>>>>>>>>>>>> KEY <<<<<<<<<<<<<<<<<<<<<<<<<<<
>                                                          <
>     SKY/WX - Sky Condition/Present Weather               <
>     TMP    - Temperature in Fahrenheit                   <
>     DP     - Dew Point in Fahrenheit                     <
>     RH     - Relative Humidity in Percent                <
>     WIND   - Direction (from) and Speed in MPH           <
>     PRES   - Mean Sea Level Pressure (inches of Hg)      <
>     WCI    - Wind Chill Index                            <
>     VSB    - Visibility in Miles                         <
>     HX     - Heat Index                                  <
>     TC     - Temperature in Celsius                      <
>     VRB    - Varibale Wind Direction                     <
>                                                          <
>>>>>>>>>>>>>>>>>>>>>>>>>>>> KEY <<<<<<<<<<<<<<<<<<<<<<<<<<<




USA.gov is the U.S. government's official web portal to all federal, state and local government web resources and services.